[[{"header":{"parameterUnit":"m.s-1","parameterCategory":1,"la1":30.2991,"la2":30.254,"lo1":-89.0895,"lo2":-89.0444,"dx":0.0017,"dy":0.0017,"nx":28,"ny":28,"refTime":"2023-01-17T09:00:00:Z","depth":0,"parameterNumber":2,"parameterNumberName":"U-component_of_WINDS"},"data":[0,0,0,0,0,0,0,0,0,0,0,0,0,0,0,0,0,0,0,0,0,0,0,0,0,0,0,0,0,0,0,0,0,0,0,0,0,0,0,0,0,0,0,0,0,0,0,0,0,0,0,0,0,0,0,0,0,0,-0.37,-0.3701,0,-0.3718,-0.3718,-0.3718,-0.3741,-0.3741,-0.3741,-0.3742,-0.376,-0.376,-0.376,0,0,0,0,0,0,0,0,0,0,0,0,0,-0.3687,-0.3687,-0.37,-0.3701,-0.3701,-0.3718,-0.3718,-0.3718,-0.3741,-0.3741,-0.3742,-0.3742,-0.376,-0.376,-0.376,0,0,0,0,0,0,0,0,0,0,0,0,0,-0.3697,-0.3687,-0.37,-0.3714,-0.3715,-0.3718,-0.3718,-0.3718,-0.3741,-0.3741,-0.3742,-0.3742,-0.376,-0.376,-0.376,-0.375,0,0,-0.3761,-0.3761,0,0,0,0,0,0,0,0,-0.3696,-0.3698,-0.3712,-0.3713,-0.3715,-0.3728,-0.372,-0.3729,-0.374,-0.3731,-0.3742,-0.3742,-0.3749,-0.375,-0.3752,-0.3751,-0.3752,-0.3761,-0.3761,-0.3761,-0.3761,0,0,0,0,0,0,0,-0.3696,-0.3697,-0.3707,-0.3712,-0.3714,-0.3719,-0.3721,-0.3722,-0.3737,-0.3732,-0.3734,-0.3735,-0.3749,-0.3752,-0.3752,-0.3752,-0.3761,-0.3761,-0.3761,-0.3761,-0.3744,-0.3744,0,0,0,0,0,0,-0.3693,-0.3696,-0.3707,-0.3708,-0.3707,-0.3719,-0.3721,-0.3723,-0.3737,-0.3739,-0.3735,-0.3736,-0.3751,-0.3752,-0.3753,-0.3743,-0.3761,-0.3761,-0.3761,-0.3745,-0.3744,-0.3744,0,0,0,0,0,0,-0.3693,-0.3694,-0.3706,-0.3703,-0.3705,-0.3719,-0.372,-0.3723,-0.3725,-0.3739,-0.3742,-0.3734,-0.3751,-0.3753,-0.3751,-0.3743,-0.3761,-0.3761,-0.3746,-0.3745,-0.3744,-0.3721,0,0,0,0,0,0,-0.3692,-0.3693,-0.369,-0.3702,-0.3705,-0.3703,-0.372,-0.3723,-0.3725,-0.3727,-0.3739,-0.3741,-0.3752,-0.375,-0.3751,-0.3744,-0.3761,-0.3746,-0.3745,-0.3744,-0.3723,-0.372,-0.3717,0,0,0,0,0,-0.3692,-0.3683,-0.369,-0.3691,-0.3701,-0.3703,-0.3704,-0.3717,-0.3725,-0.3721,-0.373,-0.3741,-0.3744,-0.375,-0.3751,-0.3744,-0.3747,-0.3746,-0.3744,-0.3724,-0.372,-0.3717,0,0,0,0,0,0,-0.3669,-0.3685,-0.3692,-0.3688,-0.3694,-0.3707,-0.3703,-0.3712,-0.3717,-0.3718,-0.3733,-0.3736,-0.3732,-0.3738,-0.3744,-0.3735,-0.3747,-0.3746,-0.3731,-0.3728,-0.3725,-0.3724,-0.3762,0,0,0,0,0,-0.3664,-0.3665,-0.3678,-0.3672,-0.3675,-0.3688,-0.369,-0.3699,-0.3706,-0.3709,-0.3717,-0.3724,-0.3726,-0.3728,-0.3731,-0.3724,-0.3727,-0.372,-0.3717,-0.3714,-0.3713,-0.371,-0.3707,-0.374,-0.374,-0.374,0,0,-0.3653,-0.3661,-0.3661,-0.3668,-0.3674,-0.3674,-0.369,-0.369,-0.369,-0.3709,-0.3707,-0.3714,-0.3722,-0.3717,-0.3716,-0.3722,-0.3705,-0.3713,-0.3711,-0.3711,-0.3708,-0.3705,-0.3702,-0.3739,-0.3739,-0.3739,0,0,-0.3632,-0.3639,-0.3635,-0.364,-0.3649,-0.3658,-0.3657,-0.3668,-0.3673,-0.3672,-0.3686,-0.3686,-0.369,-0.3696,-0.3699,-0.368,-0.369,-0.3681,-0.3666,-0.3663,-0.366,-0.3658,-0.3651,-0.3648,-0.3679,-0.3679,-0.3679,0,-0.3617,-0.3618,-0.3631,-0.363,-0.3633,-0.3649,-0.3645,-0.365,-0.3659,-0.3661,-0.3668,-0.3673,-0.368,-0.3677,-0.3672,-0.3674,-0.3673,-0.3679,-0.3659,-0.3657,-0.3655,-0.3649,-0.3646,-0.3678,-0.3678,-0.3678,-0.3679,0,-0.3599,-0.3599,-0.3595,-0.3603,-0.3606,-0.3603,-0.3616,-0.3617,-0.3625,-0.3633,-0.3632,-0.3641,-0.3646,-0.3646,-0.3654,-0.3644,-0.3647,-0.3656,-0.3669,-0.3651,-0.3645,-0.3642,-0.3676,-0.3677,-0.3677,-0.3678,0,0,-0.3565,-0.358,-0.3578,-0.3582,-0.3593,-0.3594,-0.3592,-0.3597,-0.3597,-0.3603,-0.3601,-0.3604,-0.3613,-0.3617,-0.3626,-0.3623,-0.3607,-0.3633,-0.3633,-0.3627,-0.3596,-0.3588,-0.3585,-0.3614,-0.3614,-0.3613,-0.3595,0,-0.3546,-0.3543,-0.3555,-0.355,-0.355,-0.3566,-0.3564,-0.357,-0.3578,-0.3579,-0.3588,-0.3589,-0.3601,-0.3603,-0.3601,-0.3609,-0.3601,-0.3611,-0.3613,-0.3613,-0.361,-0.3582,-0.3574,-0.3556,-0.3593,-0.3592,-0.3592,0,-0.3524,-0.3528,-0.3522,-0.3533,-0.3534,-0.3532,-0.3537,-0.3539,-0.3546,-0.3552,-0.3556,-0.3566,-0.3565,-0.3577,-0.3576,-0.3582,-0.3584,-0.3588,-0.3588,-0.3588,-0.3601,-0.3581,-0.3551,-0.3548,-0.3589,-0.3589,-0.3589,0,-0.3499,-0.3504,-0.3501,-0.3504,-0.3516,-0.3515,-0.352,-0.3528,-0.353,-0.3534,-0.3536,-0.354,-0.3543,-0.3546,-0.3557,-0.3565,-0.3554,-0.3567,-0.3559,-0.3559,-0.3556,-0.3556,-0.3525,-0.3557,-0.3557,-0.3557,-0.3557,0,-0.3477,-0.3473,-0.349,-0.3488,-0.3484,-0.3497,-0.3493,-0.35,-0.3506,-0.3506,-0.352,-0.352,-0.3535,-0.3536,-0.3545,-0.3543,-0.3544,-0.3548,-0.355,-0.3547,-0.3546,-0.3547,-0.3549,-0.3557,-0.3557,-0.3557,-0.3557,0,-0.3448,-0.346,-0.3458,-0.347,-0.3473,-0.3469,-0.3479,-0.3478,-0.3486,-0.3486,-0.3486,-0.3499,-0.3501,-0.3513,-0.3518,-0.3524,-0.3518,-0.3523,-0.3516,-0.3517,-0.3508,-0.3508,-0.3477,-0.3473,-0.3508,-0.3507,-0.3507,0,-0.3433,-0.343,-0.3442,-0.3443,-0.3447,-0.3448,-0.345,-0.3464,-0.3465,-0.3474,-0.3471,-0.3475,-0.3478,-0.348,-0.349,-0.3494,-0.3499,-0.3488,-0.35,-0.3496,-0.3498,-0.3498,-0.3498,-0.3485,-0.3484,-0.3484,-0.3484,0,-0.3405,-0.3411,-0.3413,-0.3418,-0.342,-0.3424,-0.3429,-0.3428,-0.3443,-0.3444,-0.3447,-0.3449,-0.3454,-0.3457,-0.3462,-0.3467,-0.3478,-0.348,-0.3478,-0.3474,-0.347,-0.3471,-0.3508,-0.3481,-0.3481,-0.3481,-0.3481,-0.3481,-0.3383,-0.3381,-0.3389,-0.3391,-0.3396,-0.34,-0.3399,-0.3408,-0.341,-0.3414,-0.3422,-0.3423,-0.3431,-0.3439,-0.3444,-0.3444,-0.3451,-0.3448,-0.3447,-0.3446,-0.3444,-0.3469,-0.3446,-0.3446,-0.3446,-0.3446,-0.3446,0,-0.3355,-0.3361,-0.3363,-0.3369,-0.3371,-0.3381,-0.3386,-0.3387,-0.3388,-0.3394,-0.3397,-0.3399,-0.3402,-0.3412,-0.3415,-0.3414,-0.3419,-0.3415,-0.3415,-0.3416,-0.3439,-0.344,-0.3411,-0.3411,-0.3411,-0.3411,-0.3411,-0.3411,-0.3341,-0.3338,-0.3345,-0.3344,-0.335,-0.3351,-0.3354,-0.3358,-0.3362,-0.3364,-0.3367,-0.3373,-0.3381,-0.3385,-0.3388,-0.3391,-0.3391,-0.3385,-0.339,-0.3411,-0.3414,-0.3418,-0.3419,-0.3386,-0.3385,-0.3367,-0.3367,-0.3367]},{"header":{"parameterUnit":"m.s-1","parameterCategory":1,"la1":30.2991,"la2":30.254,"lo1":-89.0895,"lo2":-89.0444,"dx":0.0017,"dy":0.0017,"nx":28,"ny":28,"refTime":"2023-01-17T09:00:00:Z","depth":0,"parameterNumber":3,"parameterNumberName":"V-component_of_WINDS"},"data":[0,0,0,0,0,0,0,0,0,0,0,0,0,0,0,0,0,0,0,0,0,0,0,0,0,0,0,0,0,0,0,0,0,0,0,0,0,0,0,0,0,0,0,0,0,0,0,0,0,0,0,0,0,0,0,0,0,0,4.5668,4.5669,0,4.5704,4.5704,4.5705,4.5648,4.5646,4.5644,4.5642,4.5676,4.5679,4.5682,0,0,0,0,0,0,0,0,0,0,0,0,0,4.5549,4.5552,4.5668,4.5669,4.5669,4.5704,4.5704,4.5705,4.5648,4.5646,4.5643,4.5641,4.5676,4.5679,4.5682,0,0,0,0,0,0,0,0,0,0,0,0,0,4.5594,4.5552,4.5668,4.5645,4.5643,4.5704,4.5704,4.5705,4.5649,4.5646,4.5643,4.564,4.5674,4.5678,4.5683,4.5766,0,0,4.5695,4.5697,0,0,0,0,0,0,0,0,4.5592,4.5599,4.5648,4.5647,4.5645,4.5668,4.5675,4.5726,4.5649,4.5647,4.5642,4.5639,4.5676,4.568,4.5693,4.5768,4.577,4.5695,4.5698,4.57,4.5701,0,0,0,0,0,0,0,4.5589,4.5597,4.5682,4.5649,4.5647,4.5632,4.5636,4.5684,4.5677,4.5647,4.5643,4.5648,4.5675,4.5689,4.5693,4.577,4.5695,4.5699,4.5701,4.5703,4.5917,4.592,0,0,0,0,0,0,4.5589,4.5595,4.5681,4.5683,4.5611,4.5637,4.564,4.5664,4.5677,4.5676,4.565,4.5645,4.5683,4.5689,4.5694,4.5795,4.57,4.5703,4.5706,4.5914,4.5918,4.5921,0,0,0,0,0,0,4.5586,4.5597,4.568,4.5638,4.5647,4.5642,4.5669,4.5666,4.5681,4.5679,4.5677,4.5666,4.5681,4.5688,4.5749,4.5795,4.5705,4.5709,4.591,4.5915,4.592,4.5996,0,0,0,0,0,0,4.5583,4.5597,4.5629,4.5639,4.565,4.5735,4.5672,4.5669,4.5688,4.5682,4.5694,4.5693,4.568,4.5744,4.5754,4.5799,4.5712,4.5906,4.5912,4.5918,4.599,4.6003,4.6015,0,0,0,0,0,4.5579,4.5648,4.5631,4.5642,4.569,4.5738,4.5744,4.5728,4.5692,4.5724,4.5724,4.5693,4.5788,4.575,4.5761,4.5809,4.5903,4.5911,4.5918,4.5984,4.6001,4.6014,0,0,0,0,0,0,4.5643,4.5649,4.563,4.5705,4.5721,4.5728,4.5769,4.5745,4.5772,4.5765,4.5742,4.5745,4.5811,4.5815,4.5773,4.5891,4.584,4.5849,4.5887,4.5902,4.5914,4.5913,4.5716,0,0,0,0,0,4.5666,4.5704,4.5707,4.5773,4.5782,4.5774,4.5794,4.578,4.5796,4.5803,4.5806,4.5823,4.5856,4.5879,4.591,4.5989,4.5992,4.6027,4.604,4.605,4.6059,4.6103,4.612,4.5945,4.5945,4.5945,0,0,4.5713,4.5721,4.5747,4.5786,4.5797,4.5838,4.5781,4.5825,4.5855,4.5809,4.5868,4.5871,4.5887,4.5959,4.599,4.5964,4.6108,4.6059,4.6067,4.6071,4.6112,4.6129,4.6144,4.595,4.5949,4.5948,0,0,4.5821,4.583,4.5887,4.5899,4.5918,4.5912,4.5925,4.5936,4.5937,4.5995,4.5962,4.5996,4.6054,4.6068,4.6083,4.6196,4.6169,4.6206,4.6272,4.6315,4.6329,4.6341,4.6383,4.6399,4.6215,4.6215,4.6215,0,4.5877,4.5938,4.5918,4.5967,4.5985,4.5946,4.6003,4.6016,4.6043,4.6056,4.6027,4.61,4.6108,4.6182,4.621,4.6222,4.6238,4.6206,4.6329,4.6341,4.6352,4.6392,4.6408,4.622,4.6219,4.6219,4.6218,0,4.6007,4.605,4.6093,4.6122,4.6145,4.6197,4.6185,4.6211,4.6194,4.6191,4.6252,4.626,4.6293,4.6308,4.6292,4.6381,4.6365,4.6332,4.6281,4.6373,4.6411,4.6426,4.6226,4.6224,4.6223,4.6222,0,0,4.6158,4.6175,4.6192,4.6205,4.6222,4.6254,4.6304,4.6337,4.636,4.6379,4.6421,4.6471,4.6442,4.6458,4.6443,4.6481,4.6572,4.6444,4.6444,4.6469,4.6672,4.6699,4.6717,4.6553,4.6556,4.6558,4.6672,0,4.6267,4.6355,4.6339,4.6425,4.6465,4.6428,4.6471,4.6486,4.6485,4.6518,4.6515,4.6552,4.6509,4.6519,4.6554,4.6554,4.6613,4.6545,4.6593,4.6596,4.6593,4.6736,4.6764,4.6871,4.6686,4.6689,4.669,0,4.6406,4.6433,4.6523,4.6535,4.6551,4.6591,4.662,4.6652,4.6668,4.6664,4.6683,4.6661,4.6711,4.6656,4.6725,4.6679,4.6698,4.67,4.6704,4.671,4.665,4.6748,4.6904,4.6921,4.6713,4.6711,4.6709,0,4.651,4.6567,4.6629,4.6641,4.6656,4.6685,4.6693,4.6706,4.6727,4.6752,4.6765,4.6795,4.6812,4.6835,4.6822,4.6783,4.6894,4.6838,4.6893,4.6894,4.692,4.6919,4.7084,4.6928,4.6928,4.6927,4.6927,0,4.6635,4.6692,4.6677,4.6715,4.6778,4.6758,4.6821,4.6824,4.6836,4.6874,4.6842,4.6878,4.6857,4.6892,4.6881,4.6941,4.6948,4.6946,4.6944,4.6951,4.6952,4.6965,4.6958,4.6931,4.6931,4.693,4.6929,0,4.6762,4.6754,4.682,4.6828,4.6832,4.6878,4.6885,4.6921,4.6917,4.6965,4.6976,4.6969,4.7008,4.6996,4.7037,4.703,4.7107,4.7093,4.7102,4.71,4.7156,4.7152,4.7338,4.7362,4.7188,4.7189,4.7191,0,4.6844,4.6888,4.6902,4.6925,4.6936,4.6974,4.6996,4.6977,4.7001,4.7023,4.7056,4.7092,4.7121,4.7185,4.7183,4.7215,4.7203,4.7266,4.7208,4.7215,4.7207,4.7206,4.7211,4.7278,4.728,4.7282,4.7283,0,4.6991,4.6985,4.7018,4.705,4.7077,4.7101,4.7122,4.7142,4.7126,4.7154,4.7194,4.7216,4.7259,4.7296,4.7325,4.7331,4.7306,4.7301,4.7316,4.7326,4.7331,4.7331,4.7137,4.7298,4.7296,4.7295,4.7294,4.7294,4.71,4.7138,4.7154,4.7192,4.7206,4.7226,4.7261,4.7261,4.7294,4.7329,4.7315,4.7362,4.7377,4.7413,4.7424,4.746,4.7436,4.7457,4.7462,4.7469,4.7477,4.7323,4.7464,4.7464,4.7464,4.7463,4.7463,0,4.7247,4.7256,4.7291,4.7322,4.7352,4.7324,4.7346,4.7373,4.7415,4.7431,4.746,4.7507,4.7542,4.7543,4.7577,4.7605,4.7594,4.7615,4.7614,4.7616,4.7495,4.7481,4.7623,4.7623,4.7623,4.7623,4.7623,4.7623,4.7328,4.7391,4.7387,4.7456,4.7463,4.751,4.7525,4.7544,4.7557,4.7611,4.7641,4.7642,4.7652,4.7686,4.7717,4.7717,4.7731,4.7757,4.7753,4.764,4.7624,4.7609,4.7595,4.776,4.776,4.7871,4.7872,4.7872]}]]